Bremerton, WA

5:17 AM PDT on October 21, 2017 (GMT -0700)
Bremerton National

Weather History for KPWT - February, 2014

Change the Weather History Date:

Wednesday, February 19, 2014

  Actual Average Record
Temperature  
Mean Temperature 38 °F -  
Max Temperature 46 °F 46 °F 53 °F (2000)
Min Temperature 30 °F 32 °F 21 °F (2005)
Degree Days  
Heating Degree Days 27    
Moisture  
Dew Point 11 °F    
Average Humidity 46    
Maximum Humidity 100    
Minimum Humidity 13    
Precipitation  
Precipitation 0.20 in - - ()
Sea Level Pressure  
Sea Level Pressure 30.06 in    
Wind  
Wind Speed 10 mph (SSW)    
Max Wind Speed 18 mph    
Max Gust Speed 26 mph    
Visibility 10 miles    
Events      
Averages and records for this station are not official NWS values.
T = Trace of Precipitation, MM = Missing Value Source: NWS Daily Summary

Daily Weather History Graph

Daily Weather History Graph

Search for Another Location

Airport or City:

Trip Planner

Search our weather history database for the weather conditions in past years. The results will help you decide how hot, cold, wet, or windy it might be!

Date:

Astronomy

Feb. 19, 2014 Rise Set
Actual Time 7:09 AM PST 5:40 PM PST
Civil Twilight 6:38 AM PST 6:12 PM PST
Nautical Twilight 6:02 AM PST 6:48 PM PST
Astronomical Twilight 5:26 AM PST 7:23 PM PST
Moon 11:03 PM PST (2/19) 8:57 AM PST (2/19)
Length of Visible Light 11h 34m
Length of Day
10h 31m
Waning Gibbous, 79% of the Moon is Illuminated
Feb 19
Waning Gibbous
Feb 22
Last Quarter
Mar 1
New
Mar 8
First Quarter
Mar 16
Full

Hourly Weather History & Observations

Time (PST) Temp. Windchill Dew Point Humidity Pressure Visibility Wind Dir Wind Speed Gust Speed Precip Events Conditions
12:15 AM 35.6 °F 29.2 °F -9.4 °F 14% 29.88 in 10.0 mi SW 8.1 mph - N/A   Scattered Clouds
12:35 AM 33.8 °F 28.6 °F -11.2 °F 14% 29.89 in 10.0 mi South 5.8 mph - N/A   Partly Cloudy
12:55 AM 35.6 °F 26.2 °F -11.2 °F 13% 29.89 in 10.0 mi South 15.0 mph 20.7 mph N/A   Partly Cloudy
1:15 AM 35.6 °F 25.2 °F -9.4 °F 14% 29.89 in 10.0 mi SSW 18.4 mph 23.0 mph N/A   Mostly Cloudy
1:35 AM 35.6 °F 25.2 °F -9.4 °F 14% 29.89 in 10.0 mi South 18.4 mph 26.5 mph N/A   Mostly Cloudy
1:55 AM 35.6 °F 25.9 °F -9.4 °F 14% 29.90 in 10.0 mi SSW 16.1 mph - N/A   Clear
2:15 AM 33.8 °F 27.0 °F -11.2 °F 14% 29.91 in 10.0 mi South 8.1 mph - N/A   Clear
2:35 AM 33.8 °F 27.0 °F -11.2 °F 14% 29.91 in 10.0 mi South 8.1 mph - N/A   Clear
2:55 AM 33.8 °F 25.8 °F -11.2 °F 14% 29.92 in 10.0 mi SSW 10.4 mph - N/A   Mostly Cloudy
3:15 AM 35.6 °F 28.0 °F -11.2 °F 13% 29.92 in 10.0 mi SSW 10.4 mph - N/A   Overcast
3:35 AM 33.8 °F 26.4 °F -11.2 °F 14% 29.93 in 10.0 mi SSW 9.2 mph - N/A   Mostly Cloudy
3:55 AM 33.8 °F 28.6 °F -11.2 °F 14% 29.93 in 10.0 mi South 5.8 mph - N/A   Mostly Cloudy
4:15 AM 33.8 °F 29.6 °F -11.2 °F 14% 29.94 in 10.0 mi SSW 4.6 mph - N/A   Overcast
4:35 AM 33.8 °F 29.6 °F -11.2 °F 14% 29.95 in 10.0 mi SSW 4.6 mph - N/A   Overcast
4:55 AM 33.8 °F 28.6 °F -11.2 °F 14% 29.97 in 10.0 mi South 5.8 mph - N/A   Mostly Cloudy
5:15 AM 33.8 °F - -11.2 °F 14% 29.97 in 10.0 mi Calm Calm - N/A   Mostly Cloudy
5:35 AM 33.8 °F 30.8 °F -11.2 °F 14% 29.98 in - SSE 3.5 mph - N/A   Overcast
5:55 AM 33.8 °F 29.6 °F -11.2 °F 14% 29.99 in 10.0 mi SSW 4.6 mph - N/A   Overcast
6:15 AM 33.8 °F 29.6 °F -11.2 °F 14% 30.00 in 10.0 mi SW 4.6 mph - N/A   Mostly Cloudy
6:35 AM 32.0 °F - -13.0 °F 14% 30.00 in 10.0 mi Calm Calm - N/A   Clear
6:55 AM 30.2 °F 24.3 °F -14.8 °F 14% 30.02 in 10.0 mi WSW 5.8 mph - N/A   Clear
7:15 AM 30.2 °F - -14.8 °F 14% 30.02 in 10.0 mi Calm Calm - N/A   Clear
7:35 AM 30.2 °F 26.7 °F -14.8 °F 14% 30.03 in 10.0 mi South 3.5 mph - N/A   Clear
7:55 AM 30.2 °F - -14.8 °F 14% 30.04 in 10.0 mi Calm Calm - N/A   Clear
8:15 AM 33.8 °F 29.6 °F -13.0 °F 13% 30.06 in 10.0 mi SSW 4.6 mph - N/A   Clear
8:35 AM 33.8 °F - -11.2 °F 14% 30.06 in 10.0 mi Calm Calm - N/A   Clear
8:55 AM 37.4 °F 31.4 °F -9.4 °F 13% 30.07 in 10.0 mi SSW 8.1 mph - N/A   Clear
9:15 AM 35.6 °F 28.6 °F -9.4 °F 14% 30.07 in 10.0 mi SSW 9.2 mph - N/A   Clear
9:35 AM 37.4 °F 30.8 °F -9.4 °F 13% 30.07 in 10.0 mi SSW 9.2 mph - N/A   Clear
9:55 AM 37.4 °F 32.1 °F -7.6 °F 15% 30.09 in 10.0 mi SSW 6.9 mph - N/A   Clear
10:15 AM 39.2 °F 35.0 °F -7.6 °F 14% 30.09 in 10.0 mi South 5.8 mph - N/A   Clear
10:35 AM 39.2 °F 35.0 °F -7.6 °F 14% 30.11 in 10.0 mi South 5.8 mph - N/A   Partly Cloudy
10:55 AM 42.8 °F 35.4 °F -5.8 °F 13% 30.12 in 10.0 mi SSW 15.0 mph 18.4 mph N/A   Scattered Clouds
11:15 AM 42.8 °F 35.8 °F -5.8 °F 13% 30.12 in 10.0 mi SSW 13.8 mph 19.6 mph N/A   Scattered Clouds
11:35 AM 42.8 °F 35.4 °F -5.8 °F 13% 30.11 in 10.0 mi SSW 15.0 mph - N/A   Partly Cloudy
11:55 AM 42.8 °F 35.8 °F -5.8 °F 13% 30.12 in 10.0 mi SSW 13.8 mph - N/A   Clear
12:15 PM 44.6 °F 38.1 °F -4.0 °F 13% 30.13 in 10.0 mi SSW 13.8 mph - N/A   Clear
12:35 PM 46.4 °F 40.1 °F -2.2 °F 13% 30.12 in 10.0 mi SSW 15.0 mph 19.6 mph N/A   Clear
12:55 PM 46.4 °F 40.1 °F 15.8 °F 29% 30.12 in 10.0 mi SSW 15.0 mph - N/A   Clear
1:15 PM 44.6 °F 36.9 °F 44.6 °F 100% 30.12 in 10.0 mi SSW 18.4 mph 23.0 mph N/A   Clear
1:35 PM 44.6 °F 38.1 °F 37.4 °F 76% 30.13 in 10.0 mi SSW 13.8 mph 21.9 mph N/A   Clear
1:55 PM 46.4 °F 39.2 °F 37.4 °F 71% 30.12 in 10.0 mi SSW 18.4 mph - N/A   Clear
2:15 PM 44.6 °F 37.2 °F 35.6 °F 71% 30.12 in 10.0 mi SSW 17.3 mph 21.9 mph N/A   Clear
2:35 PM 44.6 °F 37.4 °F 35.6 °F 71% 30.12 in 10.0 mi SSW 16.1 mph 23.0 mph N/A   Clear
2:55 PM 46.4 °F 39.5 °F 35.6 °F 66% 30.12 in 10.0 mi SSW 17.3 mph 24.2 mph N/A   Clear
3:15 PM 44.6 °F 36.9 °F 35.6 °F 71% 30.13 in 10.0 mi SSW 18.4 mph 26.5 mph N/A   Clear
3:35 PM 44.6 °F 37.4 °F 33.8 °F 66% 30.13 in 10.0 mi SSW 16.1 mph 21.9 mph N/A   Clear
3:55 PM 42.8 °F 34.8 °F 33.8 °F 70% 30.14 in 10.0 mi SSW 17.3 mph 23.0 mph N/A   Clear
4:15 PM 42.8 °F 35.1 °F 33.8 °F 70% 30.14 in 10.0 mi SSW 16.1 mph 24.2 mph N/A   Clear
4:35 PM 42.8 °F 35.4 °F 33.8 °F 70% 30.13 in 10.0 mi SSW 15.0 mph - N/A   Clear
4:55 PM 42.8 °F 34.5 °F 33.8 °F 70% 30.14 in 10.0 mi SSW 18.4 mph - N/A   Clear
5:15 PM 41.0 °F 34.3 °F 33.8 °F 76% 30.14 in 10.0 mi SSW 11.5 mph - N/A   Partly Cloudy
5:35 PM 41.0 °F 33.1 °F 35.6 °F 81% 30.14 in 10.0 mi SSW 15.0 mph - N/A   Mostly Cloudy
5:55 PM 39.2 °F 30.8 °F 35.6 °F 87% 30.14 in 10.0 mi SSW 15.0 mph - N/A   Scattered Clouds
6:15 PM 39.2 °F 33.6 °F 35.6 °F 87% 30.15 in 10.0 mi South 8.1 mph - N/A   Clear
6:35 PM 39.2 °F 34.2 °F 35.6 °F 87% 30.14 in 10.0 mi SSW 6.9 mph - N/A   Mostly Cloudy
6:55 PM 39.2 °F 33.6 °F 35.6 °F 87% 30.15 in 10.0 mi South 8.1 mph - N/A   Mostly Cloudy
7:15 PM 39.2 °F 32.5 °F 35.6 °F 87% 30.14 in 10.0 mi South 10.4 mph - N/A   Scattered Clouds
7:35 PM 39.2 °F 34.2 °F 35.6 °F 87% 30.14 in 10.0 mi South 6.9 mph - N/A   Mostly Cloudy
7:55 PM 39.2 °F 33.6 °F 35.6 °F 87% 30.13 in 10.0 mi South 8.1 mph - N/A   Overcast
8:15 PM 39.2 °F 32.0 °F 35.6 °F 87% 30.12 in 10.0 mi South 11.5 mph 16.1 mph N/A   Overcast
8:35 PM 39.2 °F 33.0 °F 35.6 °F 87% 30.13 in 10.0 mi South 9.2 mph 16.1 mph N/A   Overcast
8:55 PM 39.2 °F 32.5 °F 35.6 °F 87% 30.11 in 10.0 mi South 10.4 mph - N/A   Overcast
9:15 PM 39.2 °F 32.5 °F 35.6 °F 87% 30.11 in 10.0 mi South 10.4 mph 21.9 mph N/A   Overcast
9:35 PM 39.2 °F 30.8 °F 35.6 °F 87% 30.11 in 10.0 mi South 15.0 mph - N/A   Overcast
9:55 PM 37.4 °F 27.5 °F 37.4 °F 100% 30.10 in 10.0 mi South 18.4 mph 23.0 mph 0.02 in   Overcast
10:15 PM 37.4 °F 28.9 °F 37.4 °F 100% 30.10 in 10.0 mi South 13.8 mph 23.0 mph 0.02 in   Overcast
10:35 PM 37.4 °F 27.5 °F 35.6 °F 93% 30.10 in 10.0 mi South 18.4 mph 23.0 mph 0.04 in   Overcast
10:55 PM 37.4 °F 29.8 °F 35.6 °F 93% 30.09 in 10.0 mi South 11.5 mph 21.9 mph 0.06 in   Overcast
11:15 PM 37.4 °F 30.8 °F 35.6 °F 93% 30.07 in 10.0 mi South 9.2 mph 18.4 mph 0.03 in   Overcast
11:35 PM 37.4 °F 29.8 °F 35.6 °F 93% 30.07 in 10.0 mi South 11.5 mph - 0.07 in   Overcast
11:55 PM 37.4 °F 29.8 °F 35.6 °F 93% 30.06 in 10.0 mi South 11.5 mph 18.4 mph 0.12 in   Overcast